�N����,����,�~����,�C��,���x,�C��,����,���ϕ���,�ő�u�ԕ���,�ő厞����,���˗�,�I�_���x,�n�����x,�ő啗���N��,DTYPE
"23/11/26","00:10",0.0,6.0,93.1,1021.5,321.3,3.2,4.3,315.3,0.00,5.0,10.8,"00:06:08",1
"23/11/26","00:20",0.0,5.9,93.2,1021.5,313.6,2.8,4.7,314.1,0.00,4.9,10.7,"00:11:22",1
"23/11/26","00:30",0.0,5.8,93.4,1021.3,319.7,3.4,4.5,320.0,0.00,4.9,10.8,"00:25:44",1
"23/11/26","00:40",0.0,5.7,93.5,1021.3,330.3,3.2,5.0,312.6,0.00,4.8,10.7,"00:31:48",1
"23/11/26","00:50",0.0,5.7,93.6,1021.5,329.6,2.5,4.2,323.5,0.00,4.8,10.7,"00:40:24",1
"23/11/26","01:00",0.0,5.6,93.7,1021.1,324.9,2.5,4.3,328.5,0.00,4.7,10.9,"00:52:14",1
"23/11/26","01:10",0.0,5.7,93.9,1021.5,321.1,3.4,5.6,329.3,0.00,4.8,10.7,"01:08:02",1
"23/11/26","01:20",0.0,5.6,94.0,1021.3,321.7,3.2,4.3,322.1,0.00,4.8,10.7,"01:13:02",1
"23/11/26","01:30",0.0,5.4,94.1,1021.3,327.8,2.7,4.1,331.5,0.00,4.6,10.7,"01:29:32",1
"23/11/26","01:40",0.0,5.4,94.3,1021.3,326.0,2.8,5.1,333.4,0.00,4.6,10.6,"01:37:54",1
"23/11/26","01:50",0.0,5.5,94.3,1020.8,320.8,2.3,4.2,346.1,0.00,4.7,10.7,"01:44:08",1
"23/11/26","02:00",0.0,5.3,94.4,1020.8,314.3,2.0,3.3,331.0,0.00,4.5,10.7,"01:51:20",1
"23/11/26","02:10",0.0,4.6,94.5,1020.8,273.4,0.7,1.3,255.2,0.00,3.8,10.7,"02:08:08",1
"23/11/26","02:20",0.0,4.2,94.9,1020.8,327.3,0.2,1.6,323.9,0.00,3.5,10.7,"02:19:30",1
"23/11/26","02:30",0.0,4.0,95.2,1020.4,294.1,1.6,2.2,304.5,0.00,3.3,10.5,"02:28:58",1
"23/11/26","02:40",0.0,4.7,95.3,1020.6,318.9,2.1,4.2,336.3,0.00,4.1,10.6,"02:31:16",1
"23/11/26","02:50",0.0,4.8,95.4,1020.4,328.1,2.2,3.5,315.0,0.00,4.2,10.5,"02:47:26",1
"23/11/26","03:00",0.0,4.6,95.7,1020.1,321.6,2.6,4.2,326.0,0.00,4.0,10.7,"02:59:26",1
"23/11/26","03:10",0.0,5.0,95.6,1020.6,306.5,2.5,3.4,306.8,0.00,4.4,10.5,"03:00:50",1
"23/11/26","03:20",0.0,4.9,95.8,1020.4,312.8,2.5,4.1,315.9,0.00,4.3,10.4,"03:13:28",1
"23/11/26","03:30",0.0,4.7,95.9,1020.1,310.1,1.7,2.6,328.4,0.00,4.1,10.4,"03:20:40",1
"23/11/26","03:40",0.0,4.3,96.0,1020.1,273.9,1.1,1.6,264.7,0.00,3.8,10.4,"03:30:16",1
"23/11/26","03:50",0.0,3.8,96.3,1019.9,230.3,0.2,0.6,287.6,0.00,3.3,10.4,"03:41:40",1
"23/11/26","04:00",0.0,3.3,96.4,1020.1,263.8,1.0,1.1,267.3,0.00,2.8,10.4,"03:58:40",1
"23/11/26","04:10",0.0,3.0,96.7,1020.1,291.4,1.5,2.0,308.4,0.00,2.6,10.5,"04:09:44",1
"23/11/26","04:20",0.0,3.2,96.8,1019.9,290.5,1.3,2.0,305.3,0.00,2.8,10.2,"04:14:54",1
"23/11/26","04:30",0.0,3.3,96.9,1020.1,278.1,1.1,3.1,302.1,0.00,2.9,10.2,"04:24:08",1
"23/11/26","04:40",0.0,4.2,97.0,1020.1,301.1,2.0,4.3,331.0,0.00,3.8,10.3,"04:31:28",1
"23/11/26","04:50",0.0,3.9,96.8,1020.4,246.1,0.7,1.9,254.2,0.00,3.5,10.2,"04:40:40",1
"23/11/26","05:00",0.0,3.4,97.0,1020.1,288.0,1.1,2.1,318.2,0.00,3.0,10.1,"04:55:04",1
"23/11/26","05:10",0.0,2.9,97.2,1020.4,285.2,1.1,1.4,293.9,0.00,2.5,10.1,"05:03:38",1
"23/11/26","05:20",0.0,2.8,97.4,1020.6,296.9,1.5,2.0,310.6,0.00,2.5,10.1,"05:13:36",1
"23/11/26","05:30",0.0,3.1,97.6,1020.4,304.6,1.6,2.6,326.4,0.00,2.8,10.1,"05:25:28",1
"23/11/26","05:40",0.0,3.2,97.6,1020.4,285.6,1.0,1.4,287.0,0.00,2.9,10.2,"05:30:16",1
"23/11/26","05:50",0.0,3.5,97.6,1020.6,295.4,1.2,2.1,321.6,0.00,3.2,9.9,"05:44:56",1
"23/11/26","06:00",0.0,3.6,97.6,1020.6,306.5,1.6,2.5,319.3,0.00,3.3,9.9,"05:57:20",1
"23/11/26","06:10",0.0,3.5,97.7,1020.1,330.4,1.5,2.2,330.0,0.00,3.2,9.9,"06:04:00",1
"23/11/26","06:20",0.0,3.4,97.7,1020.1,307.8,1.5,2.4,318.8,0.00,3.1,9.9,"06:11:04",1
"23/11/26","06:30",0.0,3.2,97.8,1020.1,289.0,1.2,1.6,306.7,0.00,2.9,10.1,"06:21:28",1
"23/11/26","06:40",0.0,2.9,97.9,1020.1,316.1,1.8,2.4,323.9,0.00,2.6,10.0,"06:36:28",1
"23/11/26","06:50",0.0,3.1,98.1,1020.8,316.0,1.8,2.5,324.4,0.00,2.9,9.8,"06:44:50",1
"23/11/26","07:00",0.0,3.7,97.5,1021.1,323.7,1.5,2.7,321.1,0.00,3.4,9.8,"06:50:02",1
"23/11/26","07:10",0.0,3.8,98.0,1021.1,300.2,1.2,2.6,325.4,0.00,3.6,9.6,"07:05:12",1
"23/11/26","07:20",0.0,4.2,97.6,1020.8,292.3,1.1,3.1,311.9,0.00,3.9,9.9,"07:16:52",1
"23/11/26","07:30",0.0,4.8,98.1,1021.1,309.3,1.8,3.4,335.0,0.01,4.6,9.8,"07:28:28",1
"23/11/26","07:40",0.0,5.1,97.4,1021.1,320.4,2.2,3.7,318.9,0.00,4.8,9.8,"07:32:40",1
"23/11/26","07:50",0.0,5.0,97.9,1021.1,310.1,1.7,3.3,329.6,0.01,4.7,9.7,"07:42:30",1
"23/11/26","08:00",0.0,5.2,98.0,1021.3,274.5,1.0,1.8,292.9,0.03,5.0,9.9,"07:59:46",1
"23/11/26","08:10",0.0,5.3,97.5,1020.8,314.2,2.1,3.2,317.4,0.04,5.0,9.8,"08:03:28",1
"23/11/26","08:20",0.0,5.4,98.0,1021.3,322.3,2.0,3.3,325.7,0.08,5.1,9.7,"08:16:48",1
"23/11/26","08:30",0.0,5.9,97.4,1020.8,318.8,1.8,3.4,323.8,0.09,5.6,10.0,"08:21:44",1
"23/11/26","08:40",0.0,5.9,97.7,1021.1,310.2,1.6,3.7,317.7,0.11,5.6,9.8,"08:37:04",1
"23/11/26","08:50",0.0,6.2,97.6,1021.3,306.6,1.3,2.5,329.9,0.13,5.9,10.0,"08:42:24",1
"23/11/26","09:00",0.0,6.5,97.4,1021.5,278.4,0.6,1.8,255.5,0.14,6.2,9.9,"08:59:20",1
"23/11/26","09:10",0.0,6.7,97.4,1021.5,274.9,1.1,2.0,266.2,0.15,6.4,9.9,"09:02:24",1
"23/11/26","09:20",0.0,6.8,96.9,1021.8,276.1,1.0,1.4,254.3,0.16,6.4,10.1,"09:15:44",1
"23/11/26","09:30",0.0,6.8,96.5,1021.5,253.6,1.0,1.7,246.4,0.17,6.3,10.1,"09:28:24",1
"23/11/26","09:40",0.0,6.8,96.0,1022.0,208.3,1.0,3.1,235.2,0.18,6.2,10.2,"09:39:28",1
"23/11/26","09:50",0.0,7.2,96.3,1021.8,237.8,0.8,2.4,210.7,0.18,6.7,10.1,"09:47:36",1
"23/11/26","10:00",0.0,7.4,95.5,1021.8,274.0,0.7,1.6,322.5,0.18,6.8,10.2,"09:54:56",1
"23/11/26","10:10",0.0,7.7,95.0,1021.8,216.3,0.7,1.1,104.3,0.21,7.0,10.1,"10:01:38",1
"23/11/26","10:20",0.0,8.1,94.4,1021.3,272.3,1.2,1.8,256.1,0.27,7.3,10.1,"10:11:20",1
"23/11/26","10:30",0.0,8.0,93.1,1021.3,248.5,1.2,2.4,249.6,0.23,7.0,10.2,"10:28:02",1
"23/11/26","10:40",0.0,8.4,92.6,1021.5,293.7,1.0,1.9,250.0,0.25,7.3,10.3,"10:30:08",1
"23/11/26","10:50",0.0,8.9,90.6,1021.1,252.0,1.0,2.0,243.6,0.39,7.5,10.3,"10:45:24",1
"23/11/26","11:00",0.0,9.8,89.1,1021.3,243.6,1.0,2.7,230.8,0.45,8.1,10.4,"10:54:42",1
"23/11/26","11:10",0.0,10.2,86.2,1021.1,104.9,0.6,2.4,108.4,0.41,8.0,10.5,"11:07:02",1
"23/11/26","11:20",0.0,10.7,83.0,1020.8,214.6,0.8,2.4,228.6,0.40,8.0,10.3,"11:19:34",1
"23/11/26","11:30",0.0,11.3,81.0,1020.6,213.0,1.0,2.1,132.6,0.45,8.2,10.6,"11:28:18",1
"23/11/26","11:40",0.0,11.5,79.1,1020.1,207.8,1.2,2.7,234.6,0.45,8.0,10.6,"11:31:44",1
"23/11/26","11:50",0.0,11.7,76.8,1019.7,224.8,1.2,2.5,225.6,0.45,7.8,10.6,"11:43:36",1
"23/11/26","12:00",0.0,11.7,74.8,1019.2,204.0,1.5,2.7,227.0,0.45,7.4,10.8,"11:57:36",1
"23/11/26","12:10",0.0,12.0,74.3,1019.2,207.9,1.5,3.4,232.1,0.44,7.6,10.8,"12:03:04",1
"23/11/26","12:20",0.0,12.1,72.7,1018.7,208.6,1.5,3.4,213.5,0.44,7.4,10.8,"12:19:04",1
"23/11/26","12:30",0.0,12.5,73.1,1018.5,184.1,1.5,3.9,221.6,0.43,7.9,10.8,"12:24:32",1
"23/11/26","12:40",0.0,12.7,71.1,1018.0,200.9,1.5,4.0,234.5,0.43,7.6,10.9,"12:35:36",1
"23/11/26","12:50",0.0,12.9,70.3,1018.0,195.7,1.6,3.1,191.2,0.42,7.7,11.0,"12:44:40",1
"23/11/26","13:00",0.0,13.0,69.8,1017.8,214.6,2.0,3.9,229.5,0.41,7.7,11.3,"12:59:04",1
"23/11/26","13:10",0.0,13.1,69.7,1017.8,205.5,1.8,4.1,196.6,0.39,7.7,11.1,"13:02:32",1
"23/11/26","13:20",0.0,13.5,69.5,1017.5,193.9,1.6,4.2,208.6,0.38,8.1,11.3,"13:16:56",1
"23/11/26","13:30",0.0,13.5,68.0,1017.3,207.8,1.6,4.2,213.7,0.37,7.8,11.3,"13:25:28",1
"23/11/26","13:40",0.0,13.7,66.4,1017.1,202.2,1.5,3.2,215.4,0.35,7.6,11.3,"13:38:32",1
"23/11/26","13:50",0.0,13.9,64.8,1017.1,183.3,1.5,3.2,196.3,0.34,7.4,11.4,"13:49:44",1
"23/11/26","14:00",0.0,14.0,64.6,1016.8,213.9,1.7,5.0,231.2,0.32,7.5,11.4,"13:51:28",1
"23/11/26","14:10",0.0,13.9,63.3,1016.6,210.1,1.3,4.0,198.6,0.30,7.1,11.5,"14:08:00",1
"23/11/26","14:20",0.0,14.1,62.7,1016.8,201.3,1.5,2.7,161.4,0.28,7.1,11.6,"14:19:28",1
"23/11/26","14:30",0.0,14.4,62.4,1016.6,210.4,1.3,3.4,213.6,0.26,7.4,11.5,"14:25:36",1
"23/11/26","14:40",0.0,14.5,61.5,1016.4,213.6,1.3,3.2,128.4,0.24,7.2,11.8,"14:36:00",1
"23/11/26","14:50",0.0,14.5,60.1,1016.4,184.3,1.0,2.9,243.1,0.22,6.9,11.9,"14:46:08",1
"23/11/26","15:00",0.0,14.7,58.6,1015.9,240.4,1.1,3.7,244.1,0.19,6.7,11.9,"14:58:16",1
"23/11/26","15:10",0.0,14.9,59.4,1016.1,233.2,1.0,2.7,246.5,0.17,7.1,11.9,"15:01:20",1
"23/11/26","15:20",0.0,14.9,58.1,1015.9,221.1,0.8,2.1,246.1,0.14,6.8,11.7,"15:11:12",1
"23/11/26","15:30",0.0,14.8,57.8,1015.9,217.1,0.8,2.4,234.6,0.12,6.6,11.8,"15:29:12",1
"23/11/26","15:40",0.0,14.4,59.0,1015.9,243.6,1.2,2.0,242.5,0.09,6.5,11.9,"15:37:28",1
"23/11/26","15:50",0.0,14.2,60.1,1016.1,233.5,1.2,2.1,207.1,0.07,6.6,11.9,"15:46:16",1
"23/11/26","16:00",0.0,13.9,60.0,1016.1,240.8,1.3,2.5,239.7,0.05,6.3,11.7,"15:58:32",1
"23/11/26","16:10",0.0,13.6,60.6,1015.9,251.8,1.5,2.4,228.4,0.02,6.2,11.9,"16:00:16",1
"23/11/26","16:20",0.0,12.8,64.4,1015.6,283.6,1.0,1.0,265.7,0.00,6.3,12.0,"16:15:12",1
"23/11/26","16:30",0.0,11.9,68.1,1015.9,313.8,2.0,2.6,326.5,0.00,6.2,11.9,"16:27:54",1
"23/11/26","16:40",0.0,11.3,70.3,1015.9,295.7,1.5,2.4,298.2,0.00,6.1,11.8,"16:38:28",1
"23/11/26","16:50",0.0,10.8,72.1,1015.9,305.0,1.5,2.2,318.7,0.00,6.0,11.9,"16:44:14",1
"23/11/26","17:00",0.0,10.2,73.5,1015.6,288.3,1.3,1.8,300.2,0.00,5.7,11.9,"16:50:56",1
"23/11/26","17:10",0.0,9.8,74.9,1016.1,295.0,1.3,1.9,322.3,0.00,5.6,11.9,"17:01:20",1
"23/11/26","17:20",0.0,9.5,76.2,1016.1,288.5,1.5,2.4,315.9,0.00,5.6,11.8,"17:19:28",1
"23/11/26","17:30",0.0,9.3,77.6,1016.1,299.4,1.7,3.1,302.2,0.00,5.6,11.7,"17:22:00",1
"23/11/26","17:40",0.0,9.1,78.7,1016.1,285.2,1.6,2.4,306.7,0.00,5.6,11.7,"17:31:28",1
"23/11/26","17:50",0.0,8.9,79.9,1016.1,287.4,1.6,2.6,317.1,0.00,5.7,11.6,"17:43:12",1
"23/11/26","18:00",0.0,8.7,81.1,1016.4,287.2,1.7,2.2,306.7,0.00,5.7,11.8,"17:55:28",1
"23/11/26","18:10",0.0,8.4,82.1,1016.1,298.2,2.0,2.5,317.5,0.00,5.6,11.7,"18:05:36",1
"23/11/26","18:20",0.0,8.1,82.9,1016.4,313.0,1.8,2.6,320.8,0.00,5.4,11.5,"18:10:56",1
"23/11/26","18:30",0.0,7.6,83.7,1015.9,299.3,1.8,2.0,315.1,0.00,5.1,11.6,"18:21:04",1
"23/11/26","18:40",0.0,7.3,84.7,1015.9,284.1,1.7,2.2,293.5,0.00,4.9,11.5,"18:30:02",1
"23/11/26","18:50",0.0,7.5,85.7,1016.1,297.5,2.0,3.2,306.2,0.00,5.3,11.5,"18:49:44",1
"23/11/26","19:00",0.0,7.3,86.2,1016.1,311.5,2.0,3.1,322.0,0.00,5.2,11.5,"18:55:28",1
"23/11/26","19:10",0.0,6.7,86.9,1016.1,304.5,2.0,2.7,320.9,0.00,4.7,11.4,"19:06:32",1
"23/11/26","19:20",0.0,6.3,87.6,1016.1,306.4,1.8,2.4,317.9,0.00,4.4,11.4,"19:14:48",1
"23/11/26","19:30",0.0,6.1,88.1,1015.9,295.2,1.6,2.2,320.3,0.00,4.3,11.4,"19:28:00",1
"23/11/26","19:40",0.0,6.3,88.7,1015.6,307.9,2.0,2.7,311.8,0.00,4.6,11.4,"19:38:08",1
"23/11/26","19:50",0.0,6.2,89.1,1015.9,307.0,1.6,2.1,327.1,0.00,4.6,11.2,"19:41:20",1
"23/11/26","20:00",0.0,6.2,89.8,1015.6,289.2,1.7,2.7,319.9,0.00,4.7,11.1,"19:57:04",1
"23/11/26","20:10",0.0,6.5,90.2,1015.6,289.9,1.5,2.8,280.2,0.00,5.1,11.3,"20:04:16",1
"23/11/26","20:20",0.0,6.1,90.5,1016.1,321.3,1.2,2.4,320.8,0.00,4.7,11.0,"20:15:38",1
"23/11/26","20:30",0.0,5.6,91.0,1016.1,324.5,2.1,2.6,320.7,0.00,4.3,11.1,"20:22:24",1
"23/11/26","20:40",0.0,5.3,91.3,1015.9,312.1,1.5,1.9,314.1,0.00,4.0,11.1,"20:34:00",1
"23/11/26","20:50",0.0,5.0,91.7,1016.1,280.0,0.6,1.0,271.7,0.00,3.8,11.0,"20:44:22",1
"23/11/26","21:00",0.0,4.9,92.2,1015.6,319.8,2.0,2.6,324.5,0.00,3.8,11.1,"20:57:42",1
"23/11/26","21:10",0.0,4.7,92.4,1015.9,309.7,1.8,2.4,320.7,0.00,3.6,11.0,"21:02:08",1
"23/11/26","21:20",0.0,4.5,92.8,1015.6,276.2,1.1,1.3,272.1,0.00,3.5,11.0,"21:18:32",1
"23/11/26","21:30",0.0,4.8,93.0,1015.9,272.4,0.7,1.9,292.1,0.00,3.8,10.8,"21:20:42",1
"23/11/26","21:40",0.0,4.6,93.3,1015.9,303.6,1.3,2.1,321.5,0.00,3.7,10.7,"21:39:12",1
"23/11/26","21:50",0.0,4.5,93.5,1015.6,289.6,1.2,2.0,304.3,0.00,3.6,10.8,"21:43:08",1
"23/11/26","22:00",0.0,4.3,93.8,1015.4,306.5,1.1,2.0,319.9,0.00,3.4,10.8,"21:55:32",1
"23/11/26","22:10",0.0,4.3,94.1,1015.4,309.6,1.5,2.6,314.5,0.00,3.5,10.6,"22:07:26",1
"23/11/26","22:20",0.0,4.1,94.2,1015.6,283.8,1.0,2.2,316.7,0.00,3.3,10.6,"22:10:56",1
"23/11/26","22:30",0.0,4.3,94.6,1015.2,315.2,1.6,2.0,322.6,0.00,3.6,10.6,"22:27:14",1
"23/11/26","22:40",0.0,4.1,94.6,1015.2,302.1,1.1,2.4,325.1,0.00,3.4,10.4,"22:30:48",1
"23/11/26","22:50",0.0,3.7,94.9,1015.2,290.7,1.1,1.9,321.8,0.00,3.0,10.3,"22:46:24",1
"23/11/26","23:00",0.0,3.5,95.1,1015.2,289.0,1.1,1.8,322.7,0.00,2.8,10.5,"22:55:36",1
"23/11/26","23:10",0.0,3.5,95.4,1015.2,302.2,1.2,2.0,321.3,0.00,2.9,10.5,"23:06:32",1
"23/11/26","23:20",0.0,3.9,95.6,1014.9,311.7,1.3,1.7,340.8,0.00,3.3,10.5,"23:16:16",1
"23/11/26","23:30",0.0,3.8,95.6,1014.9,283.4,0.8,1.4,299.8,0.00,3.2,10.4,"23:28:40",1
"23/11/26","23:40",0.0,4.5,95.8,1014.9,310.5,2.2,3.5,323.7,0.00,3.9,10.3,"23:37:16",1
"23/11/26","23:50",0.0,4.4,95.8,1014.7,265.2,1.0,2.4,315.1,0.00,3.8,10.2,"23:49:12",1
"23/11/26","24:00",0.0,4.4,96.0,1014.7,289.5,1.6,2.2,317.0,0.00,3.9,10.3,"23:57:52",1
